Montreal Mirabel, Quebec

4:03 PM EDT on April 21, 2018 (GMT -0400)
Montreal Mirabel

Weather History for CYMX - April, 2012

Change the Weather History Date:

Friday, April 20, 2012

  Actual Average Record
Temperature  
Mean Temperature 46 °F -  
Max Temperature 51 °F 52 °F 71 °F (2003)
Min Temperature 41 °F 32 °F 28 °F (1997)
Degree Days  
Heating Degree Days 19    
Moisture  
Dew Point 37 °F    
Average Humidity 76    
Maximum Humidity 93    
Minimum Humidity 58    
Precipitation  
Precipitation 0.00 in - - ()
Sea Level Pressure  
Sea Level Pressure 29.93 in    
Wind  
Wind Speed 7 mph ()    
Max Wind Speed 15 mph    
Max Gust Speed 25 mph    
Visibility 17.1 miles    
Events Rain    
Averages and records for this station are not official NWS values.
T = Trace of Precipitation, MM = Missing Value Source: Averaged Metar Reports

Daily Weather History Graph

Daily Weather History Graph

Search for Another Location

Airport or City:

Astronomy

Apr. 20, 2012 Rise Set
Actual Time 6:00 AM EDT 7:49 PM EDT
Civil Twilight 5:29 AM EDT 8:21 PM EDT
Nautical Twilight 4:50 AM EDT 9:00 PM EDT
Astronomical Twilight 4:08 AM EDT 9:42 PM EDT
Moon 5:23 AM EDT (4/20) 7:33 PM EDT (4/20)
Length of Visible Light 14h 52m
Length of Day
13h 48m
Waning Crescent, 0% of the Moon is Illuminated
Apr 20
Waning Crescent
Apr 21
New
Apr 29
First Quarter
May 5
Full
May 12
Last Quarter

Hourly Weather History & Observations

Time (EDT) Temp. Windchill Dew Point Humidity Pressure Visibility Wind Dir Wind Speed Gust Speed Precip Events Conditions
12:00 AM 51.8 °F - 37.4 °F 58% 29.92 in 25.0 mi North 4.6 mph - N/A   Partly Cloudy
1:00 AM 51.8 °F - 37.4 °F 58% 29.94 in 25.0 mi North 3.5 mph - N/A   Partly Cloudy
2:00 AM 48.2 °F - 35.6 °F 62% 29.95 in 25.0 mi NE 3.5 mph - N/A   Scattered Clouds
3:00 AM 44.6 °F 41.4 °F 35.6 °F 71% 29.96 in 25.0 mi ENE 5.8 mph - N/A   Scattered Clouds
4:00 AM 44.6 °F 43.1 °F 35.6 °F 71% 29.97 in 25.0 mi ENE 3.5 mph - N/A   Mostly Cloudy
5:00 AM 42.8 °F 41.1 °F 35.6 °F 76% 29.98 in 25.0 mi ENE 3.5 mph - N/A   Mostly Cloudy
6:00 AM 44.6 °F 40.7 °F 33.8 °F 66% 29.99 in 45.0 mi NE 6.9 mph - N/A   Overcast
7:00 AM 44.6 °F 41.4 °F 33.8 °F 66% 30.01 in 45.0 mi NNE 5.8 mph - N/A   Overcast
7:04 AM 44.6 °F 41.4 °F 33.8 °F 66% - 45.0 mi NNE 5.8 mph - N/A Rain Light Rain
8:00 AM 42.8 °F 40.1 °F 37.4 °F 81% 30.02 in 15.0 mi North 4.6 mph - N/A Rain Light Rain
9:00 AM 42.8 °F 38.0 °F 35.6 °F 76% 30.01 in 25.0 mi NE 8.1 mph - N/A Rain Light Rain
10:00 AM 41.0 °F 36.4 °F 35.6 °F 81% 30.01 in 45.0 mi NE 6.9 mph - N/A Rain Light Rain
11:00 AM 41.0 °F 35.2 °F 35.6 °F 81% 30.00 in 45.0 mi NE 9.2 mph 17.3 mph N/A Rain Light Rain
12:00 PM 42.8 °F 37.0 °F 35.6 °F 76% 29.99 in 45.0 mi ENE 10.4 mph 17.3 mph N/A Rain Light Rain
1:00 PM 42.8 °F 38.0 °F 37.4 °F 81% 29.97 in 45.0 mi NE 8.1 mph 17.3 mph N/A   Overcast
2:00 PM 44.6 °F 38.8 °F 37.4 °F 76% 29.94 in 35.0 mi ENE 11.5 mph 19.6 mph N/A   Overcast
2:25 PM 44.6 °F 38.4 °F 39.2 °F 81% - 35.0 mi ENE 12.7 mph - N/A Rain Light Rain
3:00 PM 46.4 °F 40.1 °F 37.4 °F 71% 29.91 in 30.0 mi ENE 15.0 mph 21.9 mph N/A Rain Light Rain
4:00 PM 46.4 °F 41.5 °F 37.4 °F 71% 29.89 in 30.0 mi NE 10.4 mph 23.0 mph N/A   Overcast
4:12 PM 46.4 °F 40.7 °F 37.4 °F 71% - 30.0 mi ENE 12.7 mph 20.7 mph N/A   Overcast
5:00 PM 46.4 °F 40.1 °F 37.4 °F 71% 29.87 in 30.0 mi ENE 15.0 mph 25.3 mph N/A   Overcast
6:00 PM 44.6 °F 40.2 °F 37.4 °F 76% 29.86 in 30.0 mi NE 8.1 mph 23.0 mph N/A   Overcast
7:00 PM 42.8 °F 36.6 °F 37.4 °F 81% 29.83 in 25.0 mi NE 11.5 mph 20.7 mph N/A   Overcast
7:39 PM 42.8 °F 36.6 °F 37.4 °F 81% - 20.0 mi NE 11.5 mph 21.9 mph N/A   Overcast
8:00 PM 41.0 °F 35.2 °F 37.4 °F 87% 29.83 in 20.0 mi NE 9.2 mph 17.3 mph N/A   Overcast
8:47 PM 41.0 °F 33.9 °F 37.4 °F 87% - 20.0 mi ENE 12.7 mph 19.6 mph N/A Rain Light Rain
9:00 PM 41.0 °F 34.3 °F 37.4 °F 87% 29.81 in 20.0 mi ENE 11.5 mph 23.0 mph N/A Rain Light Rain
10:00 PM 41.0 °F 33.5 °F 39.2 °F 93% 29.78 in 15.0 mi ENE 13.8 mph 21.9 mph N/A Rain Light Rain
11:00 PM 41.0 °F 37.1 °F 39.2 °F 93% 29.78 in 10.0 mi NE 5.8 mph 19.6 mph N/A Rain Light Rain